Location: Chiroubles
(46.1812°N, 4.6660°E)
Time: 05:44:00
(UTC+00:00)

Transit 4A - Pass Details

Date: 09 December 2020
Orbit: 864 x 980 km, 66.8° (Epoch: 25 January)

Event Time Altitude Azimuth Distance (km) Brightness Sun altitude
Rises 07:38:15 0° 266° (W) 3,665 10.6 2.8°
Reaches altitude 10° 07:41:33 10° 282° (WNW) 2,729 9.8 3.3°
Maximum altitude 07:46:12 21° 329° (NNW) 2,075 9.2 3.9°
Drops below altitude 10° 07:50:52 10° 16° (NNE) 2,739 10.1 4.5°
Sets 07:54:12 0° 33° (NNE) 3,682 10.9 5.0°
